Home > Weather > Delta > Past weeks

Flag for Canada Weather for the Past 2 Weeks in Delta, British Columbia, Canada

Now
45 °F

Mostly cloudy.


Feels Like: 41 °F
Forecast: 43 / 45 °F
Wind: 7 mph from East

Location: Vancouver International Airport

Current Time: Feb 13, 2016 at 3:32:55 AM

Latest Report: Feb 13, 2016 at 3:00 AM


Visibility: 15 mi

Pressure: 30.15 "Hg

Humidity: 87%

Dew point: 41 °F

Location of DeltaLocation

Historic Weather in Delta — Graph

°F

Delta Temperature Yesterday

Maximum temperature yesterday: 55 °F (at 12:00 PM)
Minimum temperature yesterday: 46 °F (at 12:00 AM)
Average temperature yesterday: 50 °F

High & Low Weather Summary for the Past Weeks

 TemperatureHumidityPressure
High55 °F (Feb 9, 1:00 PM)100% (Feb 1, 3:45 AM)30.61 "Hg (Feb 1, 3:45 AM)
Low36 °F (Feb 1, 3:45 AM)62% (Feb 6, 2:00 PM)29.59 "Hg (Jan 29, 10:00 AM)
Average44 °F87%30.15 "Hg
* Reported Jan 29 2:00 AM — Feb 13 2:00 AM, Delta, Weather by CustomWeather, © 2016

Note: Actual official high and low records may vary slightly from our data, if they occured in-between our weather recording intervals... More about our weather records

Advertising

Delta Weather History for the Previous 24 Hours

 ConditionsComfort  
Time TempWeatherWind HumidityBarometerVisibility
2:00 AM
Sat, Feb 13
46 °FLight rain. Overcast.9 mph82%30.13 "Hg15 mi
1:00 AM46 °FMostly cloudy.8 mph82%30.12 "Hg15 mi
12:00 AM48 °FMostly cloudy.7 mph76%30.12 "Hg15 mi
11:00 PM
Fri, Feb 12
50 °FMostly cloudy.7 mph71%30.11 "Hg15 mi
10:00 PM50 °FMostly cloudy.10 mph71%30.10 "Hg15 mi
9:00 PM50 °FMostly cloudy.10 mph71%30.09 "Hg15 mi
8:00 PM48 °FMostly cloudy.5 mph82%30.09 "Hg15 mi
7:00 PM50 °FMostly cloudy.10 mph76%30.09 "Hg15 mi
6:00 PM50 °FOvercast.8 mph76%30.08 "Hg15 mi
5:00 PM52 °FBroken clouds.13 mph67%30.06 "Hg20 mi
4:00 PM54 °FBroken clouds.13 mph67%30.06 "Hg15 mi
3:00 PM54 °FBroken clouds.14 mph67%30.05 "Hg20 mi
2:00 PM54 °FBroken clouds.16 mph67%30.05 "Hg20 mi
1:00 PM54 °FPartly sunny.15 mph72%30.04 "Hg20 mi
12:00 PM55 °FScattered clouds.9 mph77%30.03 "Hg20 mi
11:00 AM50 °FLight rain. Mostly cloudy.9 mph94%30.05 "Hg15 mi
10:52 AM50 °FLight rain. Mostly cloudy.9 mph94%30.05 "Hg15 mi
10:00 AM50 °FMostly cloudy.9 mph94%30.03 "Hg15 mi
9:45 AM50 °FMore clouds than sun.12 mph94%30.01 "Hg15 mi
9:00 AM50 °FLight rain. Broken clouds.14 mph94%29.99 "Hg15 mi
8:02 AM48 °FLight rain. Cloudy.9 mph100%30.02 "Hg15 mi
7:54 AM48 °FCloudy.12 mph100%30.02 "Hg15 mi
7:00 AM50 °FMostly cloudy.14 mph94%30.01 "Hg15 mi
6:00 AM48 °FMostly cloudy.12 mph94%30.02 "Hg15 mi
5:00 AM48 °FLight rain. Mostly cloudy.12 mph94%30.03 "Hg15 mi
4:00 AM48 °FLight rain. Overcast.12 mph94%30.03 "Hg12 mi
3:00 AM48 °FLight rain. Mostly cloudy.9 mph94%30.05 "Hg12 mi
Weather by CustomWeather, © 2016

See weather overviewHow to use our weather pages